Simultaneous Nadir Overpasses (SNOs) Predictions

Prediction of SNOs between GOES-14 and NOAA-20 Satellite Orbit:

Table of predicted SNOs for the next 14.0 days since TLE Epoch: 11/13/2021
Index Date Time (GOES-14) GOES-14 Lat,Lon NOAA-20 Lat,Lon Distance(km) Time Diff (sec)
1 11/14/2021 08:26:22 0.12,-104.38 0.30,-105.10 82.57 80
2 11/15/2021 08:04:57 0.13,-104.37 -0.71,-100.56 433.86 80
3 11/16/2021 20:26:52 -0.11,-104.16 -0.47,-105.86 193.00 80
4 11/17/2021 20:10:47 -0.12,-104.18 0.53,-101.32 325.46 80
5 11/19/2021 08:32:34 0.10,-104.41 0.61,-106.60 249.28 80
6 11/20/2021 08:11:09 0.11,-104.41 -0.40,-102.06 267.19 80
7 11/21/2021 20:33:04 -0.09,-104.17 -0.78,-107.36 363.30 80
8 11/22/2021 20:16:58 -0.10,-104.18 0.23,-102.82 154.84 80
9 11/24/2021 08:38:46 0.07,-104.44 0.91,-108.10 417.12 80
10 11/25/2021 08:17:20 0.09,-104.43 -0.10,-103.56 99.27 80
